Theta_e
324 327 324 321 322 323 320 318 313 308 309 313 311 315 312 311 307 305 305 301 300 300 300 300 300 299 299 298 298 297 297 297 297 296 296 296 297 297
324 326 325 323 321 323 323 320 319 315 311 316 314 315 314 310 307 308 305 302 300 299 298 299 299 299 298 297 297 296 296 296 296 296 295 295 295 296
328 326 325 325 320 321 324 322 319 318 313 316 317 317 315 312 308 308 308 305 302 298 298 297 298 298 298 297 296 296 296 295 295 295 295 294 294 295
325 326 324 322 322 322 322 322 321 322 317 316 316 313 312 313 312 307 306 307 306 299 297 297 297 297 296 296 296 296 295 295 295 294 294 294 294 294
325 325 323 323 321 320 321 320 320 318 321 317 316 316 313 313 311 311 308 310 307 303 297 296 296 296 296 296 295 295 295 295 294 294 293 293 293 293
327 327 325 324 322 322 322 321 320 320 320 318 317 317 313 313 312 309 308 309 308 306 300 298 296 296 296 296 295 295 295 294 294 294 293 292 292 292
328 326 325 320 312 318 322 322 320 319 318 317 316 316 313 310 308 310 308 309 310 310 307 304 301 299 299 296 296 295 294 294 294 294 294 293 292 292
326 326 325 312 311 303 303 303 315 318 318 317 316 314 316 313 312 309 309 307 304 312 307 306 307 304 303 303 299 295 295 294 294 294 294 294 293 292
327 326 323 321 313 321 302 299 298 298 305 320 318 317 316 317 315 311 309 308 306 310 309 305 308 306 308 306 299 296 295 294 294 294 293 293 293 292
329 326 323 324 322 321 321 314 313 315 313 313 320 321 321 319 317 314 312 311 311 310 311 303 309 306 308 309 300 297 296 295 294 294 293 293 292 292
329 328 327 327 312 304 319 317 314 314 304 301 300 299 298 297 304 312 309 307 305 306 310 306 306 306 308 309 309 297 295 294 294 294 293 293 292 292
329 328 304 321 299 298 316 318 314 314 314 311 308 299 296 302 295 310 311 305 305 303 310 304 304 304 297 306 307 308 304 293 293 293 293 293 293 295
326 325 325 300 297 297 303 319 317 318 307 316 309 310 309 308 308 307 309 308 305 305 307 308 301 303 302 300 303 304 304 304 299 297 292 292 292 293
323 323 322 299 296 294 298 303 297 298 319 315 312 308 307 306 307 307 307 307 309 309 310 308 303 303 301 298 297 303 303 304 304 302 302 299 291 291
322 315 306 296 295 292 293 294 289 313 316 313 307 308 309 310 310 309 308 308 307 308 307 310 306 305 302 299 298 299 299 301 302 301 301 301 301 299
294 305 300 298 297 303 299 294 305 310 312 311 310 310 311 309 308 309 307 307 305 305 307 307 306 305 301 301 300 298 300 297 302 301 301 301 302 301
308 307 307 307 306 308 309 308 306 308 308 309 310 309 308 306 306 307 306 305 303 301 301 303 304 303 303 301 297 298 298 298 299 300 300 298 299 299
306 311 305 304 305 306 306 307 306 301 306 306 307 308 306 302 302 302 302 300 298 297 296 297 298 297 297 298 297 296 297 297 298 299 299 296 295 298
306 308 304 302 303 304 304 306 304 303 304 303 303 302 301 302 294 296 297 294 291 294 295 296 296 295 292 290 294 292 293 294 295 296 297 296 294 296
299 301 298 300 302 303 301 302 302 298 299 298 297 297 293 292 291 292 292 294 294 294 293 294 295 294 292 291 292 296 289 295 294 293 293 295 295 291
292 293 295 295 294 294 294 293 291 292 292 290 292 292 292 293 293 293 294 290 291 292 292 293 295 292 298 298 293 292 293 287 291 294 293 291 290 289
289 291 293 293 293 293 293 290 290 290 290 290 290 291 290 291 292 291 292 292 292 292 292 294 293 291 291 289 289 289 290 289 289 286 286 286 287 285
285 285 286 286 288 290 291 290 289 289 289 289 289 289 286 288 289 289 289 289 288 287 287 286 287 288 287 286 286 286 286 286 287 287 288 287 286 286
Wind_Speed
13 11 10 8 8 7 7 7 8 8 9 10 7 11 9 8 11 10 10 17 14 13 12 13 14 13 12 11 10 9 8 8 7 5 4 4 5 6
12 14 12 9 9 7 7 8 8 8 7 6 10 10 11 9 12 11 11 19 20 16 14 14 15 15 14 13 13 12 12 11 10 9 7 6 6 6
16 15 15 14 9 8 8 8 8 8 8 7 7 9 11 10 10 11 10 11 11 18 17 16 15 15 15 15 15 15 14 14 13 13 11 10 9 9
18 17 16 12 14 11 10 11 9 8 8 10 8 8 9 11 10 12 11 11 11 21 22 20 18 17 17 16 16 15 15 15 15 15 14 13 12 11
20 18 17 16 15 12 12 9 9 9 8 8 7 7 9 8 11 10 11 11 10 13 24 22 21 20 19 19 18 18 17 17 16 16 16 15 15 14
19 18 18 18 17 17 14 13 10 10 9 8 8 7 8 9 9 9 10 10 10 10 14 14 18 20 21 21 21 21 21 20 19 18 18 17 16 16
19 18 18 18 19 17 12 13 13 11 9 9 9 9 8 8 11 9 10 9 11 10 9 11 11 11 13 21 21 24 24 23 22 21 21 20 19 18
18 19 17 16 16 17 16 12 15 14 13 10 10 10 11 9 10 9 9 9 9 9 11 10 10 11 11 12 21 26 26 27 25 24 23 22 21 20
19 17 17 14 17 17 15 15 12 14 14 12 12 11 10 10 10 12 12 10 10 8 10 10 9 11 10 11 17 24 28 26 27 27 26 25 23 23
20 19 18 19 18 18 17 17 16 14 14 10 12 11 10 10 11 11 11 11 10 9 8 10 7 9 8 9 13 18 23 25 25 26 25 25 24 24
19 19 20 18 17 20 17 16 17 17 13 15 4 3 3 1 7 8 8 9 9 8 8 5 5 6 8 8 8 13 17 20 23 24 24 24 23 23
18 19 17 18 17 23 19 16 16 16 15 13 12 7 7 8 8 9 9 10 9 7 9 7 6 4 4 6 9 9 7 12 16 18 20 22 21 11
14 14 13 18 17 24 24 16 17 12 12 13 10 9 11 11 9 9 12 10 10 10 5 9 5 6 6 3 4 6 7 5 6 8 17 20 20 18
15 12 13 20 18 20 20 19 8 9 9 9 9 9 9 10 10 11 13 13 11 13 10 11 7 8 7 4 5 4 7 7 7 8 8 9 20 23
10 12 12 19 19 14 17 12 7 8 10 9 9 10 9 9 11 11 12 13 14 14 10 14 11 10 9 9 7 5 6 7 8 9 8 9 9 8
1 7 6 9 9 9 8 6 9 10 10 10 9 8 8 8 9 9 9 8 9 9 13 13 14 13 10 10 9 10 8 7 5 8 9 9 9 9
8 7 6 7 8 8 9 10 10 10 10 10 9 9 9 9 9 8 8 8 10 8 8 7 10 12 11 12 11 10 9 10 9 9 10 10 10 10
7 6 6 6 7 8 9 9 9 10 10 9 9 8 8 6 6 5 6 6 6 5 3 2 4 8 8 12 12 10 10 11 9 9 10 11 11 10
7 7 5 5 5 4 5 6 7 7 8 5 6 6 5 6 3 3 2 2 1 4 6 6 6 9 12 15 5 19 13 10 10 10 9 10 12 10
5 5 4 4 2 2 2 1 2 2 4 4 4 3 2 3 3 4 4 7 9 9 8 8 10 12 13 15 13 5 22 12 9 9 9 8 8 12
5 4 2 2 2 4 3 1 3 4 3 3 6 6 6 7 8 8 9 9 10 10 11 10 10 12 10 10 11 7 2 11 13 9 8 9 10 7
7 7 5 3 4 5 1 1 2 2 4 3 2 4 4 5 6 3 4 7 7 8 9 7 3 3 2 3 6 6 4 2 4 12 17 13 9 8
9 8 8 8 7 6 4 2 3 3 3 1 1 1 2 2 1 1 1 3 3 3 3 4 4 2 3 2 3 5 8 8 5 5 6 11 16 19
Wind_Direction
209 216 225 218 229 220 234 207 219 201 205 191 198 197 204 196 164 182 212 183 192 199 210 215 219 221 221 219 219 225 231 234 240 244 252 295 309 323
211 210 211 224 218 212 214 231 226 250 268 181 196 170 197 201 171 194 209 168 187 197 208 216 221 223 226 226 223 222 230 233 238 241 241 249 271 287
205 203 207 215 221 206 214 222 226 226 238 254 161 170 184 206 167 199 205 192 189 200 205 215 218 223 226 229 228 226 228 234 236 243 245 244 250 261
204 203 204 205 216 217 210 218 227 230 234 240 183 165 197 199 203 194 222 213 218 191 201 210 216 220 223 226 228 228 228 231 233 238 243 245 246 251
207 202 202 202 206 212 219 217 223 231 220 237 244 187 181 201 208 214 210 236 228 198 196 203 207 217 224 226 226 228 228 228 228 230 235 241 244 245
208 204 202 204 204 205 213 214 220 221 219 223 232 211 194 195 211 214 216 222 228 225 196 205 207 220 226 228 227 227 229 229 228 227 228 229 233 239
205 208 205 207 202 206 202 209 209 218 220 213 225 235 199 205 208 221 232 220 217 227 223 204 210 215 222 230 236 230 231 231 231 230 228 228 228 230
206 208 206 200 207 203 203 212 204 211 215 222 218 224 230 201 211 213 227 228 231 199 216 237 219 213 220 219 214 225 220 226 228 230 230 231 231 230
207 203 205 204 205 209 210 214 225 223 223 218 228 225 232 220 209 207 219 226 230 219 204 229 231 237 227 231 211 204 216 217 222 226 227 228 231 232
208 206 203 206 195 203 209 210 220 220 221 217 232 238 232 236 217 218 219 233 232 236 210 232 227 242 236 242 211 199 206 213 217 221 224 225 226 230
207 206 211 207 190 183 202 208 209 222 207 220 201 109 135 193 229 224 218 221 230 225 221 215 223 252 252 251 259 206 209 208 211 216 221 224 226 229
207 208 210 208 171 177 201 206 208 212 208 201 210 209 213 215 210 222 213 220 227 235 216 223 216 216 268 241 236 245 223 216 218 218 223 226 224 230
206 203 204 195 175 182 193 213 216 203 202 210 199 216 221 220 214 218 222 226 219 227 207 198 203 223 214 243 216 210 223 223 214 224 232 234 229 222
205 200 205 183 176 187 185 212 207 188 210 200 208 208 209 211 212 210 217 228 235 225 225 207 205 212 228 237 246 206 214 217 227 237 236 222 222 227
206 202 193 170 173 172 200 208 161 211 209 213 209 215 211 210 210 216 213 223 237 247 236 225 214 214 227 243 252 234 228 224 217 227 230 237 240 208
136 103 142 161 164 181 170 201 210 221 212 212 215 212 212 212 218 212 218 223 225 234 237 240 237 219 235 238 243 254 250 245 215 231 233 235 240 235
204 115 144 161 174 186 196 198 204 217 218 214 210 212 213 213 215 209 221 221 231 235 245 238 248 238 245 233 247 248 250 250 249 250 250 248 239 237
174 179 172 181 192 194 204 202 191 200 214 214 217 216 213 201 209 216 201 213 234 241 252 252 256 259 252 250 238 251 252 255 254 250 243 252 258 250
172 189 164 181 194 218 192 204 201 201 201 218 220 215 205 204 161 188 186 226 265 245 251 246 250 250 260 260 253 217 246 252 256 252 247 247 256 252
27 53 45 54 71 289 25 335 155 135 171 178 195 185 196 183 166 194 218 229 236 242 243 239 237 240 241 253 261 231 207 231 234 246 253 258 267 281
28 25 26 26 77 223 107 185 197 202 191 184 208 215 213 220 222 208 228 241 242 242 247 246 237 238 255 264 262 267 309 224 254 265 268 275 282 290
30 38 24 35 25 28 349 255 211 199 206 177 183 212 193 214 234 243 233 233 241 247 254 268 350 19 9 321 304 317 326 343 334 274 271 258 274 275
30 32 27 30 25 23 28 24 16 15 15 335 130 144 177 198 103 172 45 312 305 335 330 315 330 333 268 272 287 296 293 291 288 284 268 256 260 262